This is the latest recevied weather packets stored in our database for station/object IW9DKU-3. If no packets are shown the sender has not sent any weather packets the latest 10 day(s).
| Time | Temp. | Humidity | Pressure | Rain* | Wind** | Luminosity | Snow |
|---|---|---|---|---|---|---|---|
| 1777426659 | 20° C | 54% | 1024 hPa | - | - | - | - |
| 1777425456 | 20.56° C | 54% | 1024 hPa | - | - | - | - |
| 1777424253 | 20.56° C | 53% | 1024.1 hPa | - | - | - | - |
| 1777423049 | 20.56° C | 53% | 1024 hPa | - | - | - | - |
| 1777421846 | 20.56° C | 53% | 1024.2 hPa | - | - | - | - |
| 1777420642 | 20.56° C | 52% | 1024.3 hPa | - | - | - | - |
| 1777419439 | 20.56° C | 52% | 1024.5 hPa | - | - | - | - |
| 1777418235 | 20.56° C | 52% | 1024.8 hPa | - | - | - | - |
| 1777417032 | 20.56° C | 51% | 1025 hPa | - | - | - | - |
| 1777415828 | 20.56° C | 49% | 1025 hPa | - | - | - | - |
| 1777414625 | 20.56° C | 49% | 1024.9 hPa | - | - | - | - |
| 1777413421 | 21.11° C | 51% | 1024.9 hPa | - | - | - | - |
| 1777412218 | 21.11° C | 51% | 1024.7 hPa | - | - | - | - |
| 1777411015 | 21.11° C | 51% | 1024.8 hPa | - | - | - | - |
| 1777409811 | 21.11° C | 50% | 1025.1 hPa | - | - | - | - |
| 1777408608 | 21.11° C | 50% | 1025 hPa | - | - | - | - |
| 1777407404 | 21.67° C | 49% | 1024.9 hPa | - | - | - | - |
| 1777406201 | 21.67° C | 48% | 1024.7 hPa | - | - | - | - |
| 1777404997 | 21.67° C | 48% | 1024.6 hPa | - | - | - | - |
| 1777403794 | 21.67° C | 48% | 1024.8 hPa | - | - | - | - |
| 1777402590 | 21.67° C | 45% | 1024.7 hPa | - | - | - | - |
| 1777401387 | 22.22° C | 43% | 1024.5 hPa | - | - | - | - |
| 1777400184 | 22.22° C | 46% | 1024.2 hPa | - | - | - | - |
| 1777398980 | 22.22° C | 44% | 1024.2 hPa | - | - | - | - |
| 1777397776 | 22.78° C | 45% | 1024.2 hPa | - | - | - | - |
* Rain since midnight (hover to see other rain measurements)
** Current wind speed in m/s (hover to see current wind gust speed)